MUOS-2

Last updated on Oct. 23, 2020, 5:56 a.m. UTC

1 39206U 13036A   20296.71858880  .00000052  00000-0  00000-0 0  9994
2 39206   2.5721   1.0658 0056743 181.8500 290.4235  1.00275729 26508
UTC
Height (km)
Latitude
Longitude
Inclination
Orbital Period
UTC large
Height (km)
Speed (km/s)
/
Latitude / Longitude
Inclination (degrees)
Orbital Period (minutes)
Azimuth
Elevation
Range (km)
Doppler Factor
iOS Compass Heading
iOS Angle

Next 30 passes for location: Hong Kong

Rise time Rise Azimuth (degrees) Set time Set Azimuth (degrees) Duration Max altitude (degrees)

No matching passes for this satellites